#timestamp,LO_Frequency,Hit,StdDev 
1513368015.0,286047021.8,N
1513368015.9,286047021.8,N
1513368035.8,286047015.7,N
1513368055.6,286047017.2,N
1513368075.4,286047015.0,N
1513368095.3,286047007.4,N
1513368115.1,286047003.5,N
1513368116.0,286047003.5,N
1513368135.8,286046999.6,N
1513368155.7,286046998.8,N
1513368175.5,286046996.4,N
1513368195.3,286046996.1,N
1513368215.1,286046998.7,N
1513368235.9,286046999.4,N
1513368255.7,286047001.2,N
1513368275.5,286047000.4,N
1513368295.4,286046995.1,N
1513368315.2,286046998.0,N
1513368335.0,286046993.3,N
1513368335.9,286046993.3,N
1513368355.8,286046991.4,N
1513368375.6,286046987.7,N
1513368395.4,286046987.2,N
1513368415.3,286046989.4,N
1513368435.1,286046993.9,N
1513368436.0,286046993.9,N
1513368455.8,286046995.9,N
1513368475.7,286046993.8,N
1513368495.5,286046995.0,N
1513368515.3,286046997.2,N
1513368535.2,286046996.2,N
1513368555.9,286047000.7,N
1513368575.7,286047000.5,N
1513368595.5,286046999.8,N
1513368615.4,286047001.8,N
1513368635.2,286047001.0,N
1513368655.0,286047000.2,N
1513368655.9,286047000.2,N
1513368675.8,286047003.9,N
1513368695.6,286047002.4,N
1513368715.4,286047003.4,N
1513368735.3,286047003.6,N
1513368755.1,286047004.8,N
1513368775.8,286047006.0,N
1513368795.7,286047014.9,N
1513368815.5,286047014.9,N
1513368835.3,286047012.3,N
1513368855.2,286047009.6,N
1513368875.9,286047004.6,N
1513368895.7,286047006.3,N
1513368915.6,286047005.3,N
1513368935.4,286047005.9,N
1513368955.2,286047001.8,N
1513368975.0,286047008.7,N
1513368975.9,286047008.7,N
1513368995.8,286047012.4,N
1513369015.6,286047009.8,N
1513369035.4,286047011.3,N
1513369055.3,286047013.6,N
1513369075.1,286047011.3,N
1513369095.8,286047010.3,N
1513369115.7,286047009.8,N
1513369135.5,286047010.4,N
1513369155.3,286047011.3,N
1513369175.2,286047014.2,Y
1513369195.9,286047010.6,P
1513369215.7,286047012.0,P
1513369235.6,286047010.1,P
1513369255.4,286047010.8,Y
1513369275.2,286046997.2,P
1513369295.1,286047002.1,N
1513369296.0,286047002.1,N
1513369315.8,286047006.7,N
1513369335.6,286047011.5,N
1513369355.5,286047011.4,N
1513369375.3,286047013.0,N
1513369395.1,286047014.4,N
1513369415.9,286047017.6,Y
1513369435.7,286047010.9,P
1513369455.5,286047016.7,P
1513369475.4,286047019.2,P
1513369495.2,286047023.3,Y
1513369515.0,286047013.1,P
1513369515.9,286047013.1,P
1513369535.8,286047013.0,P
1513369555.6,286047015.2,Y
1513369575.4,286047004.4,P
1513369595.3,286047005.1,N
1513369615.1,286047009.0,N
1513369616.0,286047009.0,N
1513369635.8,286047005.2,N
1513369655.7,286047007.3,N
1513369675.5,286047004.9,N
1513369695.3,286047006.6,N
1513369715.2,286047004.6,N
1513369735.9,286047004.7,N
1513369755.7,286047006.6,N
1513369775.5,286047006.8,N
1513369795.4,286047004.6,N
1513369815.2,286046999.8,N
1513369835.0,286046999.9,N
1513369835.9,286046999.9,N
1513369855.8,286047002.0,N
1513369875.6,286047003.8,N
1513369895.4,286047001.4,N
1513369915.3,286047000.1,N
1513369935.1,286047000.7,N
1513369936.0,286047000.7,N
1513369955.8,286047000.2,N
1513369975.7,286046997.0,N
1513369995.5,286046999.2,N
1513370015.3,286047002.3,N
1513370035.2,286047003.8,N
1513370055.9,286047006.2,N
1513370075.7,286047015.1,Y
1513370095.6,286047010.9,P
1513370115.4,286047011.5,P
1513370135.2,286047015.6,P
1513370155.1,286047013.0,Y
1513370156.0,286047013.0,P
1513370175.8,286047003.0,N
1513370195.6,286047001.7,N
1513370215.5,286047001.0,N
1513370235.3,286047003.8,N
1513370255.1,286047003.8,N
1513370275.8,286046999.7,N
1513370295.7,286047009.2,N
1513370315.5,286047010.4,N
1513370335.3,286047011.1,N
1513370355.2,286047010.0,N
1513370375.0,286047011.9,N
1513370375.9,286047011.9,N
1513370395.7,286047007.7,N
1513370415.6,286047013.9,Y
1513370435.4,286047007.1,P
1513370455.2,286046998.7,P
1513370475.1,286047002.2,N
1513370476.0,286047002.2,N
1513370495.8,286047002.0,N
1513370515.6,286046998.2,N
1513370535.5,286046998.2,N
1513370555.3,286046999.1,N
1513370575.1,286046995.9,N
1513370595.9,286046996.9,N
1513370615.7,286046996.1,N
1513370635.5,286046994.4,N
1513370655.4,286046992.0,N
1513370675.2,286046991.7,N
1513370695.0,286046990.1,N
1513370695.9,286046990.1,N
1513370715.8,286046991.4,N
1513370735.6,286046987.8,N
1513370755.4,286046987.0,N
1513370775.2,286046987.9,N
1513370795.1,286046982.7,N
1513370796.0,286046982.7,N
1513370815.8,286046981.4,N
1513370835.7,286046976.8,Y
1513370855.5,286046976.3,P
1513370875.3,286046973.6,N
1513370895.1,286046971.0,P
1513370915.9,286046977.7,N
1513370935.7,286046972.8,Y
1513370955.5,286046993.8,P
1513370975.4,286046991.8,N
1513370995.2,286046991.4,N
1513371015.0,286046983.5,N
1513371015.9,286046983.5,N
1513371035.8,286046982.8,Y
1513371055.6,286046993.9,P
1513371075.4,286046993.9,N
1513371095.3,286046996.3,N
1513371115.1,286046995.0,N
1513371135.8,286047001.6,N
1513371155.7,286047003.8,N
1513371175.5,286046998.3,N
1513371195.3,286046991.9,N
1513371215.2,286046990.2,N
1513371235.9,286046991.9,N
1513371255.7,286046989.2,N
1513371275.6,286046988.5,N
1513371295.4,286046990.0,N
1513371315.2,286046992.3,N
1513371335.0,286046991.7,N
1513371335.9,286046991.7,N
1513371355.8,286046996.2,N
1513371375.6,286046995.3,N
1513371395.4,286046997.9,N
1513371415.3,286047000.7,N
1513371435.1,286047006.0,N
1513371455.8,286047002.9,N
1513371475.7,286047004.5,N
1513371495.5,286047003.0,N
1513371515.3,286047000.1,N
1513371535.2,286047002.0,N
1513371555.9,286047000.0,N
1513371575.7,286046999.7,N
1513371595.5,286047002.3,N
